Time,TemperatureF,DewpointF,PressureIn,WindDirection,WindDirectionDegrees,WindSpeedMPH,WindSpeedGustMPH,Humidity,HourlyPrecipIn,Conditions,Clouds,dailyrainin,SoftwareType,DateUTC
2013-03-18 00:00:00,29.9,22.2,29.86,East,90,0.2,3.1,73,0.00,,,0.00,WUHU216HW,2013-03-18 04:00:00,
2013-03-18 00:01:00,29.9,22.2,29.86,East,90,0.2,3.1,73,0.00,,,0.00,WUHU216HW,2013-03-18 04:01:00,
2013-03-18 00:06:00,29.7,22.1,29.86,ENE,68,0.0,0.4,73,0.00,,,0.00,WUHU216HW,2013-03-18 04:06:00,
2013-03-18 00:11:00,29.7,22.1,29.85,NE,45,1.1,1.1,73,0.00,,,0.00,WUHU216HW,2013-03-18 04:11:00,
2013-03-18 00:16:00,29.7,22.1,29.85,NNW,338,0.7,3.1,73,0.00,,,0.00,WUHU216HW,2013-03-18 04:16:00,
2013-03-18 00:21:00,29.7,22.1,29.85,NE,45,0.7,3.1,73,0.00,,,0.00,WUHU216HW,2013-03-18 04:21:00,
2013-03-18 00:26:00,29.7,22.1,29.84,North,0,0.2,1.1,73,0.00,,,0.00,WUHU216HW,2013-03-18 04:26:00,
2013-03-18 00:31:00,29.7,22.1,29.84,NE,45,1.1,1.1,73,0.00,,,0.00,WUHU216HW,2013-03-18 04:31:00,
2013-03-18 00:36:00,29.7,22.1,29.85,WNW,293,0.2,2.0,73,0.00,,,0.00,WUHU216HW,2013-03-18 04:36:00,
2013-03-18 00:41:00,29.7,22.1,29.84,West,270,0.0,2.0,73,0.00,,,0.00,WUHU216HW,2013-03-18 04:41:00,
2013-03-18 00:46:00,29.7,22.1,29.84,ENE,68,1.8,1.8,73,0.00,,,0.00,WUHU216HW,2013-03-18 04:46:00,
2013-03-18 00:51:00,29.7,22.1,29.84,North,0,0.0,2.7,73,0.00,,,0.00,WUHU216HW,2013-03-18 04:51:00,
2013-03-18 00:56:00,29.7,22.1,29.84,NW,315,0.7,2.7,73,0.00,,,0.00,WUHU216HW,2013-03-18 04:56:00,
2013-03-18 01:01:00,29.7,22.1,29.84,ESE,113,1.1,1.8,73,0.00,,,0.00,WUHU216HW,2013-03-18 05:01:00,
2013-03-18 01:06:00,29.9,22.2,29.83,East,90,0.7,1.8,73,0.00,,,0.00,WUHU216HW,2013-03-18 05:06:00,
2013-03-18 01:11:00,29.9,22.2,29.83,NNE,23,1.8,1.8,73,0.00,,,0.00,WUHU216HW,2013-03-18 05:11:00,
2013-03-18 01:16:00,29.7,21.8,29.83,NNW,338,0.4,2.2,72,0.00,,,0.00,WUHU216HW,2013-03-18 05:16:00,
2013-03-18 01:21:00,29.7,21.8,29.83,North,0,1.8,2.2,72,0.00,,,0.00,WUHU216HW,2013-03-18 05:21:00,
2013-03-18 01:26:00,29.9,22.0,29.83,SE,135,0.9,3.6,72,0.00,,,0.00,WUHU216HW,2013-03-18 05:26:00,
2013-03-18 01:31:00,29.9,22.0,29.83,WNW,293,0.2,3.6,72,0.00,,,0.00,WUHU216HW,2013-03-18 05:31:00,
2013-03-18 01:36:00,29.9,22.0,29.83,East,90,2.0,2.0,72,0.00,,,0.00,WUHU216HW,2013-03-18 05:36:00,
2013-03-18 01:41:00,29.9,22.0,29.83,SE,135,0.4,2.0,72,0.00,,,0.00,WUHU216HW,2013-03-18 05:41:00,
2013-03-18 01:46:00,29.9,22.0,29.83,East,90,0.7,1.8,72,0.00,,,0.00,WUHU216HW,2013-03-18 05:46:00,
2013-03-18 01:51:00,30.1,22.1,29.82,NNE,23,2.0,2.0,72,0.00,,,0.00,WUHU216HW,2013-03-18 05:51:00,
2013-03-18 01:56:00,30.1,22.1,29.82,SE,135,0.4,4.0,72,0.00,,,0.00,WUHU216HW,2013-03-18 05:56:00,
2013-03-18 02:02:00,30.1,22.1,29.82,ENE,68,0.0,4.0,72,0.00,,,0.00,WUHU216HW,2013-03-18 06:02:00,
2013-03-18 02:07:00,30.2,22.0,29.82,NNW,338,0.4,2.7,71,0.00,,,0.00,WUHU216HW,2013-03-18 06:07:00,
2013-03-18 02:12:00,30.2,22.0,29.82,SSW,203,1.1,1.6,71,0.00,,,0.00,WUHU216HW,2013-03-18 06:12:00,
2013-03-18 02:17:00,30.2,22.0,29.82,WNW,293,0.4,1.8,71,0.00,,,0.00,WUHU216HW,2013-03-18 06:17:00,
2013-03-18 02:22:00,30.2,22.0,29.82,NNW,338,0.4,4.7,71,0.00,,,0.00,WUHU216HW,2013-03-18 06:22:00,
2013-03-18 02:27:00,30.4,22.2,29.82,ENE,68,2.7,4.7,71,0.00,,,0.00,WUHU216HW,2013-03-18 06:27:00,
2013-03-18 02:32:00,30.6,22.3,29.82,ENE,68,0.4,2.7,71,0.00,,,0.00,WUHU216HW,2013-03-18 06:32:00,
2013-03-18 02:37:00,30.6,22.3,29.82,East,90,0.2,2.7,71,0.00,,,0.00,WUHU216HW,2013-03-18 06:37:00,
2013-03-18 02:42:00,30.6,22.3,29.81,East,90,1.1,2.7,71,0.00,,,0.00,WUHU216HW,2013-03-18 06:42:00,
2013-03-18 02:47:00,30.6,22.3,29.81,NNE,23,0.7,2.7,71,0.00,,,0.00,WUHU216HW,2013-03-18 06:47:00,
2013-03-18 02:52:00,30.6,22.3,29.81,NNE,23,0.7,0.7,71,0.00,,,0.00,WUHU216HW,2013-03-18 06:52:00,
2013-03-18 03:00:00,30.6,22.3,29.81,East,90,0.9,0.9,71,0.00,,,0.00,WUHU216HW,2013-03-18 07:00:00,
2013-03-18 03:05:00,30.6,22.3,29.81,ENE,68,0.2,0.9,71,0.00,,,0.00,WUHU216HW,2013-03-18 07:05:00,
2013-03-18 03:10:00,30.8,22.5,29.81,East,90,2.5,3.4,71,0.00,,,0.00,WUHU216HW,2013-03-18 07:10:00,
2013-03-18 03:15:00,30.8,22.5,29.81,ENE,68,1.8,3.6,71,0.00,,,0.00,WUHU216HW,2013-03-18 07:15:00,
2013-03-18 03:20:00,31.0,22.7,29.81,SE,135,0.4,4.9,71,0.00,,,0.00,WUHU216HW,2013-03-18 07:20:00,
2013-03-18 03:25:00,31.0,22.3,29.81,East,90,0.0,4.9,70,0.00,,,0.00,WUHU216HW,2013-03-18 07:25:00,
2013-03-18 03:30:00,31.0,22.7,29.81,SW,225,1.1,1.8,71,0.00,,,0.00,WUHU216HW,2013-03-18 07:30:00,
2013-03-18 03:35:00,31.0,22.7,29.81,ESE,113,0.7,1.8,71,0.00,,,0.00,WUHU216HW,2013-03-18 07:35:00,
2013-03-18 03:40:00,31.1,22.5,29.81,ESE,113,2.7,2.7,70,0.00,,,0.00,WUHU216HW,2013-03-18 07:40:00,
2013-03-18 03:45:00,31.1,22.9,29.80,East,90,0.4,2.7,71,0.00,,,0.00,WUHU216HW,2013-03-18 07:45:00,
2013-03-18 03:50:00,31.1,22.9,29.80,ENE,68,3.8,3.8,71,0.00,,,0.00,WUHU216HW,2013-03-18 07:50:00,
2013-03-18 03:55:00,31.3,22.7,29.80,NE,45,0.4,3.8,70,0.00,,,0.00,WUHU216HW,2013-03-18 07:55:00,
2013-03-18 04:00:00,31.3,22.7,29.81,NE,45,1.3,2.5,70,0.00,,,0.00,WUHU216HW,2013-03-18 08:00:00,
2013-03-18 04:05:00,31.3,22.7,29.80,NE,45,2.0,2.5,70,0.00,,,0.00,WUHU216HW,2013-03-18 08:05:00,
2013-03-18 04:10:00,31.3,22.7,29.80,ENE,68,0.4,2.2,70,0.00,,,0.00,WUHU216HW,2013-03-18 08:10:00,
2013-03-18 04:15:00,31.3,22.7,29.80,ENE,68,0.9,2.2,70,0.00,,,0.00,WUHU216HW,2013-03-18 08:15:00,
2013-03-18 04:20:00,31.3,22.7,29.80,ENE,68,1.8,1.8,70,0.00,,,0.00,WUHU216HW,2013-03-18 08:20:00,
2013-03-18 04:25:00,31.3,22.7,29.80,ENE,68,0.7,6.3,70,0.00,,,0.00,WUHU216HW,2013-03-18 08:25:00,
2013-03-18 04:30:00,31.3,22.7,29.80,East,90,0.2,6.3,70,0.00,,,0.00,WUHU216HW,2013-03-18 08:30:00,
2013-03-18 04:35:00,31.3,22.7,29.79,ESE,113,1.8,2.0,70,0.00,,,0.00,WUHU216HW,2013-03-18 08:35:00,
2013-03-18 04:40:00,31.3,22.7,29.79,NNE,23,2.2,2.7,70,0.00,,,0.00,WUHU216HW,2013-03-18 08:40:00,
2013-03-18 04:45:00,31.5,22.9,29.79,ENE,68,1.1,2.7,70,0.00,,,0.00,WUHU216HW,2013-03-18 08:45:00,
2013-03-18 04:50:00,31.7,23.0,29.79,North,0,0.0,1.1,70,0.00,,,0.00,WUHU216HW,2013-03-18 08:50:00,
2013-03-18 04:55:00,31.7,23.0,29.78,SE,135,1.8,2.9,70,0.00,,,0.00,WUHU216HW,2013-03-18 08:55:00,
2013-03-18 05:00:00,31.7,23.0,29.78,ENE,68,1.8,2.9,70,0.00,,,0.00,WUHU216HW,2013-03-18 09:00:00,
2013-03-18 05:05:00,31.9,23.2,29.78,North,0,1.3,1.8,70,0.00,,,0.00,WUHU216HW,2013-03-18 09:05:00,
2013-03-18 05:10:00,31.9,23.2,29.77,NE,45,1.6,6.7,70,0.00,,,0.00,WUHU216HW,2013-03-18 09:10:00,
2013-03-18 05:15:00,31.9,23.2,29.77,East,90,0.4,6.7,70,0.00,,,0.00,WUHU216HW,2013-03-18 09:15:00,
2013-03-18 05:20:00,31.9,23.2,29.77,ENE,68,0.4,2.0,70,0.00,,,0.00,WUHU216HW,2013-03-18 09:20:00,
2013-03-18 05:25:00,32.0,23.4,29.77,WNW,293,0.4,1.1,70,0.00,,,0.00,WUHU216HW,2013-03-18 09:25:00,
2013-03-18 05:30:00,32.0,23.4,29.77,NNW,338,0.0,1.8,70,0.00,,,0.00,WUHU216HW,2013-03-18 09:30:00,
2013-03-18 05:35:00,32.0,23.4,29.76,East,90,1.1,4.9,70,0.00,,,0.00,WUHU216HW,2013-03-18 09:35:00,
2013-03-18 05:40:00,32.2,23.6,29.76,ESE,113,0.7,4.9,70,0.00,,,0.00,WUHU216HW,2013-03-18 09:40:00,
2013-03-18 05:45:00,32.2,23.6,29.76,SE,135,0.7,2.5,70,0.00,,,0.00,WUHU216HW,2013-03-18 09:45:00,
2013-03-18 05:50:00,32.4,23.8,29.76,NE,45,1.1,2.7,70,0.00,,,0.00,WUHU216HW,2013-03-18 09:50:00,
2013-03-18 05:55:00,32.4,23.8,29.76,NNE,23,0.0,2.7,70,0.00,,,0.00,WUHU216HW,2013-03-18 09:55:00,
2013-03-18 06:00:00,32.4,23.8,29.75,NW,315,1.1,1.8,70,0.00,,,0.00,WUHU216HW,2013-03-18 10:00:00,
2013-03-18 06:05:00,32.6,24.2,29.75,SE,135,0.0,1.8,71,0.00,,,0.00,WUHU216HW,2013-03-18 10:05:00,
2013-03-18 06:10:00,32.6,24.2,29.75,NE,45,1.1,2.7,71,0.00,,,0.00,WUHU216HW,2013-03-18 10:10:00,
2013-03-18 06:15:00,32.4,24.4,29.75,NNW,338,4.0,4.0,72,0.00,,,0.00,WUHU216HW,2013-03-18 10:15:00,
2013-03-18 06:20:00,32.4,25.0,29.75,NNE,23,3.4,4.0,74,0.00,,,0.00,WUHU216HW,2013-03-18 10:20:00,
2013-03-18 06:25:00,32.4,25.4,29.75,SE,135,0.0,9.2,75,0.00,,,0.00,WUHU216HW,2013-03-18 10:25:00,
2013-03-18 06:30:00,32.4,25.4,29.75,SE,135,0.0,9.2,75,0.00,,,0.00,WUHU216HW,2013-03-18 10:30:00,
2013-03-18 06:53:00,32.4,26.6,29.73,ESE,113,2.9,2.9,79,0.00,,,0.00,WUHU216HW,2013-03-18 10:53:00,
2013-03-18 06:58:00,32.4,26.6,29.73,ESE,113,2.9,2.9,79,0.00,,,0.00,WUHU216HW,2013-03-18 10:58:00,
2013-03-18 07:03:00,32.6,27.1,29.73,North,0,1.8,2.2,80,0.00,,,0.00,WUHU216HW,2013-03-18 11:03:00,
2013-03-18 07:08:00,32.4,27.0,29.73,WSW,248,0.4,2.2,80,0.00,,,0.00,WUHU216HW,2013-03-18 11:08:00,
2013-03-18 07:13:00,32.4,27.0,29.73,NE,45,0.7,3.4,80,0.00,,,0.00,WUHU216HW,2013-03-18 11:13:00,
2013-03-18 07:18:00,32.4,27.0,29.73,ESE,113,3.4,3.4,80,0.00,,,0.00,WUHU216HW,2013-03-18 11:18:00,
2013-03-18 07:23:00,32.4,27.3,29.72,NNE,23,1.1,3.4,81,0.00,,,0.00,WUHU216HW,2013-03-18 11:23:00,
2013-03-18 07:28:00,32.4,27.3,29.72,ENE,68,1.8,3.4,81,0.00,,,0.00,WUHU216HW,2013-03-18 11:28:00,
2013-03-18 07:33:00,32.4,27.3,29.72,NNW,338,4.0,4.3,81,0.00,,,0.00,WUHU216HW,2013-03-18 11:33:00,
2013-03-18 07:38:00,32.4,27.3,29.72,NNW,338,0.2,4.3,81,0.00,,,0.00,WUHU216HW,2013-03-18 11:38:00,
2013-03-18 07:43:00,32.4,27.3,29.72,WSW,248,0.9,3.8,81,0.00,,,0.00,WUHU216HW,2013-03-18 11:43:00,
2013-03-18 07:48:00,32.4,27.5,29.72,ENE,68,0.4,3.1,82,0.00,,,0.00,WUHU216HW,2013-03-18 11:48:00,
2013-03-18 07:53:00,32.4,27.3,29.72,West,270,0.4,3.1,81,0.00,,,0.00,WUHU216HW,2013-03-18 11:53:00,
2013-03-18 07:58:00,32.6,27.5,29.72,NNE,23,3.1,3.1,81,0.00,,,0.00,WUHU216HW,2013-03-18 11:58:00,
2013-03-18 08:03:00,32.6,27.5,29.71,SSE,158,0.9,3.1,81,0.00,,,0.00,WUHU216HW,2013-03-18 12:03:00,
2013-03-18 08:08:00,32.6,27.5,29.71,ENE,68,2.7,3.4,81,0.00,,,0.00,WUHU216HW,2013-03-18 12:08:00,
2013-03-18 08:13:00,32.6,27.5,29.71,ESE,113,4.0,4.9,81,0.00,,,0.00,WUHU216HW,2013-03-18 12:13:00,
2013-03-18 08:18:00,32.6,27.5,29.71,NNE,23,1.1,4.9,81,0.00,,,0.00,WUHU216HW,2013-03-18 12:18:00,
2013-03-18 08:23:00,32.4,27.3,29.70,East,90,1.6,4.5,81,0.00,,,0.00,WUHU216HW,2013-03-18 12:23:00,
2013-03-18 08:28:00,32.4,27.3,29.71,NW,315,1.1,4.5,81,0.00,,,0.00,WUHU216HW,2013-03-18 12:28:00,
2013-03-18 08:33:00,32.4,27.3,29.70,NNE,23,2.0,4.0,81,0.00,,,0.00,WUHU216HW,2013-03-18 12:33:00,
2013-03-18 08:38:00,32.4,27.3,29.70,NE,45,2.2,2.5,81,0.00,,,0.00,WUHU216HW,2013-03-18 12:38:00,
2013-03-18 08:43:00,32.4,27.3,29.70,East,90,2.9,2.9,81,0.00,,,0.00,WUHU216HW,2013-03-18 12:43:00,
2013-03-18 08:48:00,32.4,27.3,29.69,SW,225,1.8,3.4,81,0.00,,,0.00,WUHU216HW,2013-03-18 12:48:00,
2013-03-18 08:53:00,32.2,27.1,29.69,East,90,0.9,2.7,81,0.00,,,0.00,WUHU216HW,2013-03-18 12:53:00,
2013-03-18 08:58:00,32.4,27.3,29.68,ENE,68,3.4,4.5,81,0.00,,,0.00,WUHU216HW,2013-03-18 12:58:00,
2013-03-18 09:03:00,32.4,27.5,29.68,ENE,68,2.0,4.5,82,0.00,,,0.00,WUHU216HW,2013-03-18 13:03:00,
2013-03-18 09:08:00,32.4,27.5,29.68,North,0,1.1,2.2,82,0.00,,,0.00,WUHU216HW,2013-03-18 13:08:00,
2013-03-18 09:13:00,32.4,27.5,29.68,ENE,68,2.9,2.9,82,0.00,,,0.00,WUHU216HW,2013-03-18 13:13:00,
2013-03-18 09:18:00,32.2,27.4,29.67,ENE,68,1.8,2.9,82,0.00,,,0.00,WUHU216HW,2013-03-18 13:18:00,
2013-03-18 09:23:00,32.2,27.4,29.67,NNW,338,2.9,2.9,82,0.00,,,0.00,WUHU216HW,2013-03-18 13:23:00,
2013-03-18 09:28:00,32.2,27.4,29.67,NE,45,3.1,3.1,82,0.00,,,0.00,WUHU216HW,2013-03-18 13:28:00,
2013-03-18 09:33:00,32.2,27.4,29.66,ESE,113,1.3,3.1,82,0.00,,,0.00,WUHU216HW,2013-03-18 13:33:00,
2013-03-18 09:38:00,32.2,27.4,29.66,North,0,0.4,3.1,82,0.00,,,0.00,WUHU216HW,2013-03-18 13:38:00,
2013-03-18 09:43:00,32.2,27.4,29.66,ENE,68,1.8,2.5,82,0.00,,,0.00,WUHU216HW,2013-03-18 13:43:00,
2013-03-18 09:48:00,32.2,27.4,29.66,East,90,1.1,4.0,82,0.00,,,0.00,WUHU216HW,2013-03-18 13:48:00,
2013-03-18 09:53:00,32.2,27.4,29.67,SSE,158,1.8,4.0,82,0.00,,,0.00,WUHU216HW,2013-03-18 13:53:00,
2013-03-18 09:58:00,32.2,27.4,29.67,ENE,68,1.8,2.9,82,0.00,,,0.00,WUHU216HW,2013-03-18 13:58:00,
2013-03-18 10:03:00,32.2,27.4,29.67,ENE,68,2.9,2.9,82,0.00,,,0.00,WUHU216HW,2013-03-18 14:03:00,
2013-03-18 10:08:00,32.2,27.4,29.67,NE,45,2.5,2.9,82,0.00,,,0.00,WUHU216HW,2013-03-18 14:08:00,
2013-03-18 10:13:00,32.4,27.5,29.66,NE,45,4.0,4.0,82,0.00,,,0.00,WUHU216HW,2013-03-18 14:13:00,
2013-03-18 10:18:00,32.4,27.5,29.67,ENE,68,2.5,4.0,82,0.00,,,0.00,WUHU216HW,2013-03-18 14:18:00,
2013-03-18 10:23:00,32.4,27.5,29.66,NNE,23,2.0,2.5,82,0.01,,,0.01,WUHU216HW,2013-03-18 14:23:00,
2013-03-18 10:28:00,32.4,27.5,29.66,SW,225,1.6,2.5,82,0.01,,,0.01,WUHU216HW,2013-03-18 14:28:00,
2013-03-18 10:33:00,32.4,27.5,29.65,SW,225,0.4,2.0,82,0.01,,,0.01,WUHU216HW,2013-03-18 14:33:00,
2013-03-18 10:38:00,32.4,27.5,29.65,ENE,68,1.1,2.0,82,0.01,,,0.01,WUHU216HW,2013-03-18 14:38:00,
2013-03-18 10:43:00,32.4,27.5,29.66,ESE,113,1.3,2.2,82,0.01,,,0.01,WUHU216HW,2013-03-18 14:43:00,
2013-03-18 10:48:00,32.4,27.5,29.64,ESE,113,1.8,2.2,82,0.02,,,0.02,WUHU216HW,2013-03-18 14:48:00,
2013-03-18 10:53:00,32.6,27.7,29.63,ENE,68,1.1,2.5,82,0.02,,,0.02,WUHU216HW,2013-03-18 14:53:00,
2013-03-18 10:58:00,32.6,28.0,29.63,NNE,23,1.1,2.5,83,0.03,,,0.03,WUHU216HW,2013-03-18 14:58:00,
2013-03-18 11:03:00,32.6,28.0,29.63,NNW,338,0.4,1.8,83,0.03,,,0.03,WUHU216HW,2013-03-18 15:03:00,
2013-03-18 11:08:00,32.8,28.2,29.63,ESE,113,0.4,1.8,83,0.03,,,0.03,WUHU216HW,2013-03-18 15:08:00,
2013-03-18 11:13:00,32.8,28.2,29.63,SW,225,0.4,3.1,83,0.04,,,0.04,WUHU216HW,2013-03-18 15:13:00,
2013-03-18 11:18:00,32.8,28.2,29.63,NW,315,0.9,3.1,83,0.04,,,0.05,WUHU216HW,2013-03-18 15:18:00,
2013-03-18 11:23:00,32.8,28.2,29.63,ESE,113,2.9,2.9,83,0.04,,,0.05,WUHU216HW,2013-03-18 15:23:00,
2013-03-18 11:28:00,32.8,28.2,29.63,NE,45,1.1,2.9,83,0.05,,,0.06,WUHU216HW,2013-03-18 15:28:00,
2013-03-18 11:33:00,32.8,28.4,29.63,ENE,68,0.7,1.8,84,0.05,,,0.06,WUHU216HW,2013-03-18 15:33:00,
2013-03-18 11:38:00,32.8,28.4,29.63,ENE,68,0.7,0.7,84,0.05,,,0.06,WUHU216HW,2013-03-18 15:38:00,
2013-03-18 11:59:00,32.9,28.6,29.59,North,0,3.1,3.1,84,0.03,,,0.06,WUHU216HW,2013-03-18 15:59:00,
2013-03-18 12:04:00,33.1,29.1,29.59,NE,45,1.3,3.1,85,0.03,,,0.06,WUHU216HW,2013-03-18 16:04:00,
2013-03-18 12:09:00,33.1,29.1,29.59,WSW,248,1.3,2.7,85,0.02,,,0.06,WUHU216HW,2013-03-18 16:09:00,
2013-03-18 12:14:00,33.1,28.8,29.60,WNW,293,0.7,2.7,84,0.01,,,0.06,WUHU216HW,2013-03-18 16:14:00,
2013-03-18 12:19:00,33.1,29.1,29.58,ESE,113,2.2,2.2,85,0.01,,,0.06,WUHU216HW,2013-03-18 16:19:00,
2013-03-18 12:24:00,33.1,29.1,29.59,WNW,293,1.8,2.2,85,0.00,,,0.06,WUHU216HW,2013-03-18 16:24:00,
2013-03-18 12:29:00,33.1,28.8,29.58,NW,315,2.7,2.7,84,0.00,,,0.06,WUHU216HW,2013-03-18 16:29:00,
2013-03-18 12:34:00,33.1,29.1,29.58,ESE,113,0.4,3.4,85,0.01,,,0.07,WUHU216HW,2013-03-18 16:34:00,
2013-03-18 12:39:00,33.1,29.1,29.59,WSW,248,3.1,3.4,85,0.01,,,0.07,WUHU216HW,2013-03-18 16:39:00,
2013-03-18 12:44:00,33.3,29.3,29.59,NW,315,1.1,3.1,85,0.01,,,0.07,WUHU216HW,2013-03-18 16:44:00,
2013-03-18 12:49:00,33.3,29.3,29.59,NW,315,0.7,1.8,85,0.01,,,0.07,WUHU216HW,2013-03-18 16:49:00,
2013-03-18 12:54:00,33.3,29.5,29.59,NW,315,0.4,2.0,86,0.01,,,0.07,WUHU216HW,2013-03-18 16:54:00,
2013-03-18 12:59:00,33.3,29.5,29.59,NW,315,1.6,3.1,86,0.01,,,0.07,WUHU216HW,2013-03-18 16:59:00,
2013-03-18 13:04:00,33.3,29.3,29.58,NW,315,0.4,3.1,85,0.01,,,0.07,WUHU216HW,2013-03-18 17:04:00,
2013-03-18 13:09:00,33.1,29.1,29.58,NW,315,0.4,1.3,85,0.01,,,0.07,WUHU216HW,2013-03-18 17:09:00,
2013-03-18 13:14:00,33.3,29.3,29.58,NW,315,0.2,1.8,85,0.01,,,0.07,WUHU216HW,2013-03-18 17:14:00,
2013-03-18 13:19:00,33.1,29.1,29.58,NW,315,0.4,1.8,85,0.01,,,0.07,WUHU216HW,2013-03-18 17:19:00,
2013-03-18 13:24:00,33.3,29.3,29.58,NNW,338,0.4,1.3,85,0.01,,,0.07,WUHU216HW,2013-03-18 17:24:00,
2013-03-18 13:29:00,33.3,29.5,29.58,NW,315,1.1,1.3,86,0.00,,,0.07,WUHU216HW,2013-03-18 17:29:00,
2013-03-18 13:34:00,33.3,29.5,29.57,NW,315,0.7,1.1,86,0.00,,,0.07,WUHU216HW,2013-03-18 17:34:00,
2013-03-18 13:39:00,33.5,29.7,29.57,NW,315,0.7,1.8,86,0.00,,,0.07,WUHU216HW,2013-03-18 17:39:00,
2013-03-18 13:44:00,33.3,29.5,29.56,NW,315,0.4,1.8,86,0.00,,,0.07,WUHU216HW,2013-03-18 17:44:00,
2013-03-18 13:49:00,33.5,29.7,29.56,NW,315,1.1,1.3,86,0.00,,,0.07,WUHU216HW,2013-03-18 17:49:00,
2013-03-18 13:54:00,33.5,29.7,29.55,NW,315,0.2,1.3,86,0.00,,,0.07,WUHU216HW,2013-03-18 17:54:00,
2013-03-18 13:59:00,33.5,29.7,29.55,NW,315,0.9,1.8,86,0.00,,,0.07,WUHU216HW,2013-03-18 17:59:00,
2013-03-18 14:04:00,33.5,29.7,29.55,NW,315,0.4,1.8,86,0.00,,,0.07,WUHU216HW,2013-03-18 18:04:00,
2013-03-18 14:09:00,33.5,29.7,29.55,NW,315,0.2,1.6,86,0.00,,,0.07,WUHU216HW,2013-03-18 18:09:00,
2013-03-18 14:14:00,33.5,29.7,29.55,NNW,338,0.4,1.6,86,0.00,,,0.07,WUHU216HW,2013-03-18 18:14:00,
2013-03-18 14:19:00,33.7,29.8,29.54,NW,315,3.1,3.1,86,0.00,,,0.07,WUHU216HW,2013-03-18 18:19:00,
2013-03-18 14:24:00,33.8,30.0,29.54,NW,315,1.1,3.1,86,0.00,,,0.07,WUHU216HW,2013-03-18 18:24:00,
2013-03-18 14:29:00,33.8,30.0,29.54,ENE,68,0.4,2.5,86,0.00,,,0.07,WUHU216HW,2013-03-18 18:29:00,
2013-03-18 14:34:00,33.8,30.0,29.54,ENE,68,0.4,2.5,86,0.00,,,0.07,WUHU216HW,2013-03-18 18:34:00,
2013-03-18 14:39:00,33.8,30.0,29.54,NW,315,0.9,1.3,86,0.00,,,0.07,WUHU216HW,2013-03-18 18:39:00,
2013-03-18 14:44:00,33.8,30.0,29.53,East,90,0.7,1.3,86,0.00,,,0.07,WUHU216HW,2013-03-18 18:44:00,
2013-03-18 14:49:00,34.0,30.2,29.53,NW,315,0.4,1.3,86,0.00,,,0.07,WUHU216HW,2013-03-18 18:49:00,
2013-03-18 14:54:00,33.8,30.0,29.53,ESE,113,0.7,1.3,86,0.02,,,0.09,WUHU216HW,2013-03-18 18:54:00,
2013-03-18 14:59:00,34.0,30.2,29.53,North,0,0.4,1.3,86,0.02,,,0.09,WUHU216HW,2013-03-18 18:59:00,
2013-03-18 15:04:00,34.0,30.2,29.53,NNW,338,1.3,1.3,86,0.02,,,0.09,WUHU216HW,2013-03-18 19:04:00,
2013-03-18 15:09:00,34.0,30.2,29.52,NNW,338,0.4,1.8,86,0.02,,,0.09,WUHU216HW,2013-03-18 19:09:00,
2013-03-18 15:14:00,34.2,30.3,29.51,East,90,2.2,2.2,86,0.02,,,0.09,WUHU216HW,2013-03-18 19:14:00,
2013-03-18 15:19:00,34.2,30.3,29.51,NW,315,0.2,2.2,86,0.02,,,0.09,WUHU216HW,2013-03-18 19:19:00,
2013-03-18 15:24:00,34.4,30.5,29.51,WSW,248,0.0,1.1,86,0.02,,,0.09,WUHU216HW,2013-03-18 19:24:00,
2013-03-18 15:29:00,34.6,30.7,29.51,WSW,248,0.4,1.8,86,0.02,,,0.09,WUHU216HW,2013-03-18 19:29:00,
2013-03-18 15:34:00,34.6,30.7,29.50,NW,315,0.0,1.8,86,0.02,,,0.09,WUHU216HW,2013-03-18 19:34:00,
2013-03-18 15:39:00,34.6,30.7,29.51,SSW,203,0.4,1.1,86,0.02,,,0.09,WUHU216HW,2013-03-18 19:39:00,
2013-03-18 15:44:00,34.6,30.7,29.51,ESE,113,0.4,0.7,86,0.02,,,0.09,WUHU216HW,2013-03-18 19:44:00,
2013-03-18 15:49:00,34.6,30.7,29.50,ESE,113,0.4,0.4,86,0.01,,,0.09,WUHU216HW,2013-03-18 19:49:00,
2013-03-18 15:54:00,34.6,30.7,29.50,West,270,0.7,1.8,86,0.00,,,0.09,WUHU216HW,2013-03-18 19:54:00,
2013-03-18 15:59:00,34.6,30.7,29.49,NNE,23,0.4,1.8,86,0.00,,,0.09,WUHU216HW,2013-03-18 19:59:00,
2013-03-18 16:04:00,34.6,30.7,29.49,East,90,0.7,1.1,86,0.00,,,0.09,WUHU216HW,2013-03-18 20:04:00,
2013-03-18 16:09:00,34.6,30.7,29.49,SSW,203,0.4,1.1,86,0.01,,,0.10,WUHU216HW,2013-03-18 20:09:00,
2013-03-18 16:14:00,34.6,30.7,29.49,West,270,0.4,1.1,86,0.01,,,0.10,WUHU216HW,2013-03-18 20:14:00,
2013-03-18 16:19:00,34.6,30.7,29.48,NE,45,0.4,2.2,86,0.01,,,0.10,WUHU216HW,2013-03-18 20:19:00,
2013-03-18 16:24:00,34.7,30.9,29.48,ENE,68,0.7,2.2,86,0.02,,,0.10,WUHU216HW,2013-03-18 20:24:00,
2013-03-18 16:29:00,34.7,30.9,29.48,ENE,68,0.9,1.8,86,0.02,,,0.11,WUHU216HW,2013-03-18 20:29:00,
2013-03-18 16:34:00,34.9,31.1,29.48,SE,135,0.4,1.8,86,0.02,,,0.11,WUHU216HW,2013-03-18 20:34:00,
2013-03-18 16:35:00,34.9,31.1,29.47,ESE,113,3.4,3.4,86,0.02,,,0.11,WUHU216HW,2013-03-18 20:35:00,
2013-03-18 16:39:00,34.9,31.1,29.47,ESE,113,3.4,3.4,86,0.02,,,0.11,WUHU216HW,2013-03-18 20:39:00,
2013-03-18 16:44:00,34.9,31.1,29.47,ESE,113,3.4,3.4,86,0.02,,,0.11,WUHU216HW,2013-03-18 20:44:00,
2013-03-18 17:00:00,35.1,31.2,29.47,NE,45,3.4,3.4,86,0.02,,,0.11,WUHU216HW,2013-03-18 21:00:00,
2013-03-18 17:05:00,35.3,31.7,29.46,ESE,113,1.8,3.4,87,0.01,,,0.11,WUHU216HW,2013-03-18 21:05:00,
2013-03-18 17:10:00,35.5,31.9,29.46,ESE,113,4.0,4.0,87,0.01,,,0.11,WUHU216HW,2013-03-18 21:10:00,
2013-03-18 17:15:00,35.5,31.9,29.47,South,180,1.1,4.0,87,0.01,,,0.11,WUHU216HW,2013-03-18 21:15:00,
2013-03-18 17:20:00,35.5,31.9,29.46,East,90,1.8,2.0,87,0.01,,,0.11,WUHU216HW,2013-03-18 21:20:00,
2013-03-18 17:25:00,35.6,32.0,29.47,ESE,113,0.0,1.8,87,0.00,,,0.11,WUHU216HW,2013-03-18 21:25:00,
2013-03-18 17:30:00,35.6,32.0,29.47,ENE,68,1.6,1.6,87,0.00,,,0.11,WUHU216HW,2013-03-18 21:30:00,
2013-03-18 17:35:00,35.6,32.0,29.47,ENE,68,0.0,1.6,87,0.00,,,0.11,WUHU216HW,2013-03-18 21:35:00,
2013-03-18 17:40:00,35.6,32.0,29.47,NNE,23,1.8,1.8,87,0.00,,,0.11,WUHU216HW,2013-03-18 21:40:00,
2013-03-18 17:45:00,35.5,31.9,29.47,North,0,0.0,1.8,87,0.00,,,0.11,WUHU216HW,2013-03-18 21:45:00,
2013-03-18 17:50:00,35.5,31.9,29.47,North,0,0.7,1.1,87,0.00,,,0.11,WUHU216HW,2013-03-18 21:50:00,
2013-03-18 17:55:00,35.3,31.7,29.46,ESE,113,1.1,3.1,87,0.01,,,0.12,WUHU216HW,2013-03-18 21:55:00,
2013-03-18 18:00:00,35.5,31.9,29.45,East,90,0.7,3.1,87,0.01,,,0.12,WUHU216HW,2013-03-18 22:00:00,
2013-03-18 18:05:00,35.3,31.7,29.45,East,90,0.2,1.1,87,0.02,,,0.13,WUHU216HW,2013-03-18 22:05:00,
2013-03-18 18:10:00,35.5,31.9,29.45,NW,315,0.4,1.1,87,0.02,,,0.13,WUHU216HW,2013-03-18 22:10:00,
2013-03-18 18:15:00,35.5,31.9,29.45,West,270,1.1,1.6,87,0.02,,,0.13,WUHU216HW,2013-03-18 22:15:00,
2013-03-18 18:20:00,35.5,31.9,29.45,East,90,0.4,2.5,87,0.02,,,0.13,WUHU216HW,2013-03-18 22:20:00,
2013-03-18 18:25:00,35.5,31.9,29.45,ENE,68,0.0,2.5,87,0.02,,,0.13,WUHU216HW,2013-03-18 22:25:00,
2013-03-18 18:30:00,35.6,32.0,29.45,NW,315,0.4,1.1,87,0.02,,,0.13,WUHU216HW,2013-03-18 22:30:00,
2013-03-18 18:35:00,35.6,32.0,29.45,WSW,248,0.0,1.8,87,0.02,,,0.13,WUHU216HW,2013-03-18 22:35:00,
2013-03-18 18:40:00,35.8,32.2,29.45,NW,315,1.6,1.8,87,0.02,,,0.13,WUHU216HW,2013-03-18 22:40:00,
2013-03-18 18:45:00,36.0,32.4,29.45,ENE,68,1.8,2.2,87,0.02,,,0.13,WUHU216HW,2013-03-18 22:45:00,
2013-03-18 18:50:00,36.0,32.4,29.45,East,90,0.2,2.2,87,0.02,,,0.13,WUHU216HW,2013-03-18 22:50:00,
2013-03-18 18:55:00,36.0,32.4,29.45,East,90,0.4,2.0,87,0.01,,,0.13,WUHU216HW,2013-03-18 22:55:00,
2013-03-18 19:00:00,36.0,32.4,29.44,North,0,0.4,2.0,87,0.01,,,0.13,WUHU216HW,2013-03-18 23:00:00,
2013-03-18 19:05:00,36.0,32.4,29.45,NNE,23,0.0,1.8,87,0.00,,,0.13,WUHU216HW,2013-03-18 23:05:00,
2013-03-18 19:10:00,36.0,32.4,29.45,NNE,23,1.1,1.1,87,0.00,,,0.13,WUHU216HW,2013-03-18 23:10:00,
2013-03-18 19:15:00,36.0,32.4,29.44,North,0,0.4,1.8,87,0.00,,,0.13,WUHU216HW,2013-03-18 23:15:00,
2013-03-18 19:20:00,36.0,32.4,29.44,SE,135,0.9,1.8,87,0.00,,,0.13,WUHU216HW,2013-03-18 23:20:00,
2013-03-18 19:25:00,36.0,32.8,29.44,NNW,338,0.9,1.8,88,0.00,,,0.13,WUHU216HW,2013-03-18 23:25:00,
2013-03-18 19:30:00,36.2,33.0,29.44,WNW,293,0.7,1.8,88,0.00,,,0.13,WUHU216HW,2013-03-18 23:30:00,
2013-03-18 19:35:00,36.2,32.6,29.43,West,270,1.1,1.6,87,0.00,,,0.13,WUHU216HW,2013-03-18 23:35:00,
2013-03-18 19:40:00,36.2,33.0,29.43,NNW,338,1.3,1.6,88,0.00,,,0.13,WUHU216HW,2013-03-18 23:40:00,
2013-03-18 19:45:00,37.4,34.5,29.43,NE,45,0.2,1.3,89,0.01,,,0.13,WUHU216HW,2013-03-18 23:45:00,
2013-03-18 19:50:00,38.7,35.1,29.43,West,270,1.1,1.6,87,0.01,,,0.14,WUHU216HW,2013-03-18 23:50:00,
2013-03-18 19:55:00,39.6,35.7,29.43,North,0,1.6,1.6,86,0.01,,,0.14,WUHU216HW,2013-03-18 23:55:00,
2013-03-18 20:00:00,38.9,34.5,29.43,North,0,0.0,1.6,84,0.01,,,0.14,WUHU216HW,2013-03-19 00:00:00,
2013-03-18 20:05:00,38.2,33.8,29.43,WNW,293,0.0,2.0,84,0.01,,,0.14,WUHU216HW,2013-03-19 00:05:00,
2013-03-18 20:10:00,37.6,33.2,29.43,ENE,68,0.2,2.0,84,0.01,,,0.14,WUHU216HW,2013-03-19 00:10:00,
2013-03-18 20:15:00,37.3,32.9,29.44,North,0,0.2,1.6,84,0.01,,,0.14,WUHU216HW,2013-03-19 00:15:00,
2013-03-18 20:20:00,37.1,32.9,29.43,ENE,68,0.0,2.0,85,0.01,,,0.14,WUHU216HW,2013-03-19 00:20:00,
2013-03-18 20:25:00,36.9,32.8,29.43,SE,135,0.4,2.0,85,0.01,,,0.14,WUHU216HW,2013-03-19 00:25:00,
2013-03-18 20:30:00,36.9,33.0,29.43,North,0,0.4,0.9,86,0.01,,,0.14,WUHU216HW,2013-03-19 00:30:00,
2013-03-18 20:35:00,36.7,32.9,29.43,NNW,338,0.7,1.3,86,0.01,,,0.14,WUHU216HW,2013-03-19 00:35:00,
2013-03-18 20:40:00,36.7,32.9,29.43,NNW,338,0.2,1.6,86,0.02,,,0.15,WUHU216HW,2013-03-19 00:40:00,
2013-03-18 20:45:00,36.7,32.9,29.43,WSW,248,0.4,1.6,86,0.01,,,0.15,WUHU216HW,2013-03-19 00:45:00,
2013-03-18 20:50:00,36.7,32.9,29.43,SSE,158,0.4,0.4,86,0.01,,,0.15,WUHU216HW,2013-03-19 00:50:00,
2013-03-18 20:55:00,36.7,32.9,29.43,NNW,338,0.0,0.4,86,0.01,,,0.15,WUHU216HW,2013-03-19 00:55:00,
2013-03-18 21:00:00,36.7,33.1,29.43,NE,45,1.6,1.6,87,0.01,,,0.15,WUHU216HW,2013-03-19 01:00:00,
2013-03-18 21:05:00,36.7,32.9,29.43,North,0,1.1,1.6,86,0.01,,,0.15,WUHU216HW,2013-03-19 01:05:00,
2013-03-18 21:10:00,36.7,33.1,29.43,NE,45,0.0,1.1,87,0.01,,,0.15,WUHU216HW,2013-03-19 01:10:00,
2013-03-18 21:15:00,36.7,33.1,29.42,SE,135,0.9,0.9,87,0.01,,,0.15,WUHU216HW,2013-03-19 01:15:00,
2013-03-18 21:20:00,36.7,33.1,29.42,SE,135,0.2,0.9,87,0.01,,,0.15,WUHU216HW,2013-03-19 01:20:00,
2013-03-18 21:25:00,36.7,33.1,29.42,NE,45,0.7,1.1,87,0.01,,,0.15,WUHU216HW,2013-03-19 01:25:00,
2013-03-18 21:30:00,36.7,33.1,29.42,North,0,0.4,1.1,87,0.01,,,0.15,WUHU216HW,2013-03-19 01:30:00,
2013-03-18 21:35:00,36.7,33.1,29.42,SW,225,0.4,1.1,87,0.01,,,0.15,WUHU216HW,2013-03-19 01:35:00,
2013-03-18 21:40:00,36.7,33.1,29.42,WNW,293,0.9,1.1,87,0.00,,,0.15,WUHU216HW,2013-03-19 01:40:00,
2013-03-18 21:45:00,36.9,33.3,29.42,SW,225,1.1,1.3,87,0.00,,,0.15,WUHU216HW,2013-03-19 01:45:00,
2013-03-18 21:50:00,36.9,33.3,29.42,NE,45,0.0,1.3,87,0.00,,,0.15,WUHU216HW,2013-03-19 01:50:00,
2013-03-18 21:55:00,36.9,33.3,29.42,NE,45,0.0,1.1,87,0.00,,,0.15,WUHU216HW,2013-03-19 01:55:00,
2013-03-18 22:00:00,36.9,33.3,29.42,SSW,203,0.2,1.6,87,0.00,,,0.15,WUHU216HW,2013-03-19 02:00:00,
2013-03-18 22:05:00,36.9,33.3,29.42,ESE,113,1.8,1.8,87,0.00,,,0.15,WUHU216HW,2013-03-19 02:05:00,
2013-03-18 22:10:00,36.9,33.3,29.41,East,90,0.0,1.8,87,0.00,,,0.15,WUHU216HW,2013-03-19 02:10:00,
2013-03-18 22:15:00,36.9,33.3,29.42,West,270,0.4,1.8,87,0.01,,,0.16,WUHU216HW,2013-03-19 02:15:00,
2013-03-18 22:20:00,37.1,33.5,29.41,WSW,248,0.9,1.8,87,0.01,,,0.16,WUHU216HW,2013-03-19 02:20:00,
2013-03-18 22:25:00,37.1,33.5,29.41,East,90,1.1,1.8,87,0.01,,,0.16,WUHU216HW,2013-03-19 02:25:00,
2013-03-18 22:30:00,37.1,33.5,29.41,NNE,23,0.4,1.3,87,0.01,,,0.16,WUHU216HW,2013-03-19 02:30:00,
2013-03-18 22:35:00,37.1,33.5,29.41,ENE,68,0.2,1.1,87,0.01,,,0.16,WUHU216HW,2013-03-19 02:35:00,
2013-03-18 22:40:00,37.1,33.5,29.41,East,90,0.0,1.1,87,0.01,,,0.16,WUHU216HW,2013-03-19 02:40:00,
2013-03-18 22:45:00,37.1,33.5,29.40,East,90,0.0,1.3,87,0.01,,,0.16,WUHU216HW,2013-03-19 02:45:00,
2013-03-18 22:50:00,37.1,33.5,29.41,NNE,23,0.0,1.3,87,0.01,,,0.16,WUHU216HW,2013-03-19 02:50:00,
2013-03-18 22:55:00,37.1,33.5,29.40,NNE,23,0.0,0.7,87,0.01,,,0.16,WUHU216HW,2013-03-19 02:55:00,
2013-03-18 23:00:00,37.1,33.5,29.40,WSW,248,0.0,0.7,87,0.02,,,0.17,WUHU216HW,2013-03-19 03:00:00,
2013-03-18 23:05:00,37.3,33.7,29.40,ENE,68,0.9,1.1,87,0.02,,,0.17,WUHU216HW,2013-03-19 03:05:00,
2013-03-18 23:10:00,37.3,33.7,29.41,ENE,68,0.2,1.1,87,0.01,,,0.17,WUHU216HW,2013-03-19 03:10:00,
2013-03-18 23:15:00,37.3,34.0,29.41,NNW,338,0.0,1.1,88,0.01,,,0.17,WUHU216HW,2013-03-19 03:15:00,
2013-03-18 23:20:00,37.3,34.0,29.40,East,90,0.4,1.1,88,0.01,,,0.17,WUHU216HW,2013-03-19 03:20:00,
2013-03-18 23:25:00,37.4,34.2,29.41,East,90,0.0,1.1,88,0.01,,,0.17,WUHU216HW,2013-03-19 03:25:00,
2013-03-18 23:30:00,37.4,34.2,29.41,East,90,0.0,0.4,88,0.01,,,0.17,WUHU216HW,2013-03-19 03:30:00,
2013-03-18 23:35:00,37.4,34.2,29.41,WNW,293,0.0,0.7,88,0.01,,,0.17,WUHU216HW,2013-03-19 03:35:00,
2013-03-18 23:40:00,37.4,34.2,29.41,North,0,0.0,1.3,88,0.01,,,0.17,WUHU216HW,2013-03-19 03:40:00,
2013-03-18 23:45:00,37.4,34.2,29.41,ENE,68,0.0,1.3,88,0.01,,,0.17,WUHU216HW,2013-03-19 03:45:00,
2013-03-18 23:50:00,37.4,34.2,29.41,ENE,68,0.0,0.0,88,0.01,,,0.17,WUHU216HW,2013-03-19 03:50:00,
2013-03-18 23:55:00,37.6,34.4,29.40,ENE,68,0.0,0.0,88,0.02,,,0.19,WUHU216HW,2013-03-19 03:55:00,